This is the latest recevied weather packets stored in our database for station/object K5GTX. If no packets are shown the sender has not sent any weather packets the latest 10 day(s).
| Time | Temp. | Humidity | Pressure | Rain* | Wind** | Luminosity | Snow |
|---|---|---|---|---|---|---|---|
| 1777470529 | 15° C | 99% | 1022.1 hPa | 0 mm | - | 32 W/m² | - |
| 1777470225 | 15° C | 99% | 1021.8 hPa | 0 mm | - | 29 W/m² | - |
| 1777469921 | 15° C | 99% | 1021.9 hPa | 0 mm | - | 24 W/m² | - |
| 1777469617 | 15° C | 99% | 1022 hPa | 0 mm | - | 24 W/m² | - |
| 1777469312 | 15° C | 99% | 1022 hPa | 0 mm | - | 17 W/m² | - |
| 1777469007 | 15° C | 99% | 1022 hPa | 0 mm | - | 18 W/m² | - |
| 1777468703 | 15° C | 99% | 1021.9 hPa | 0 mm | - | 13 W/m² | - |
| 1777468400 | 15° C | 99% | 1021.7 hPa | 0 mm | - | 18 W/m² | - |
| 1777468096 | 15° C | 99% | 1021.6 hPa | 0 mm | - | 13 W/m² | - |
| 1777467792 | 15° C | 99% | 1021.3 hPa | 0 mm | - | 22 W/m² | - |
| 1777467487 | 15° C | 99% | 1021.6 hPa | 0 mm | - | 12 W/m² | - |
| 1777467183 | 15° C | 99% | 1021.6 hPa | 0 mm | - | 9 W/m² | - |
| 1777466880 | 15° C | 99% | 1021.7 hPa | 0 mm | - | 7 W/m² | - |
| 1777466578 | 15.56° C | 99% | 1021.7 hPa | 0 mm | - | 4 W/m² | - |
| 1777466274 | 15° C | 99% | 1021.3 hPa | 0 mm | - | 4 W/m² | - |
| 1777465970 | 15.56° C | 99% | 1021.6 hPa | 0 mm | - | 4 W/m² | - |
| 1777465667 | 15.56° C | 99% | 1021.1 hPa | 0 mm | - | 2 W/m² | - |
| 1777465362 | 15.56° C | 99% | 1020.8 hPa | 0 mm | - | 4 W/m² | - |
| 1777465061 | 15.56° C | 99% | 1020.5 hPa | 0 mm | - | 4 W/m² | - |
| 1777464757 | 15.56° C | 99% | 1020.9 hPa | 0 mm | - | 4 W/m² | - |
| 1777464453 | 15.56° C | 99% | 1020.7 hPa | 0 mm | - | 2 W/m² | - |
| 1777464149 | 15.56° C | 99% | 1020.5 hPa | 0 mm | - | 1 W/m² | - |
| 1777463849 | 15.56° C | 99% | 1020.4 hPa | 0 mm | - | 1 W/m² | - |
| 1777463545 | 15.56° C | 99% | 1020.5 hPa | 0 mm | - | 0 W/m² | - |
| 1777463240 | 15.56° C | 99% | 1020.6 hPa | 0 mm | - | 0 W/m² | - |
* Rain latest hour (hover to see other rain measurements)
** Current wind speed in m/s (hover to see current wind gust speed)